2024/02/19 00:00:00,20.9, 8.4
2024/02/19 00:10:00,20.9, 8.9
2024/02/19 00:20:00,20.9, 8.7
2024/02/19 00:30:00,20.9, 8.4
2024/02/19 00:40:00,20.8, 8.3
2024/02/19 00:50:00,20.7, 8.1
2024/02/19 01:00:00,20.7, 7.7
2024/02/19 01:10:00,20.6, 7.9
2024/02/19 01:20:00,20.5, 7.7
2024/02/19 01:30:00,20.4, 8.1
2024/02/19 01:40:00,20.4, 8.3
2024/02/19 01:50:00,20.3, 8.0
2024/02/19 02:00:00,20.1, 8.3
2024/02/19 02:10:00,19.9, 8.3
2024/02/19 02:20:00,19.9, 8.3
2024/02/19 02:30:00,19.8, 8.0
2024/02/19 02:40:00,19.8, 8.4
2024/02/19 02:50:00,19.6, 8.3
2024/02/19 03:00:00,19.3, 8.5
2024/02/19 03:10:00,19.3, 8.3
2024/02/19 03:20:00,19.1, 8.4
2024/02/19 03:30:00,19.0, 8.5
2024/02/19 03:40:00,19.0, 8.8
2024/02/19 03:50:00,19.1, 8.9
2024/02/19 04:00:00,18.8, 8.7
2024/02/19 04:10:00,18.5, 8.7
2024/02/19 04:20:00,18.6, 8.6
2024/02/19 04:30:00,18.4, 8.8
2024/02/19 04:40:00,18.1, 8.8
2024/02/19 04:50:00,18.1, 8.9
2024/02/19 05:00:00,17.9, 8.9
2024/02/19 05:10:00,18.0, 9.1
2024/02/19 05:20:00,18.1, 9.1
2024/02/19 05:30:00,18.0, 8.9
2024/02/19 05:40:00,17.8, 9.0
2024/02/19 05:50:00,17.8, 8.4
2024/02/19 06:00:00,17.8, 8.8
2024/02/19 06:10:00,17.7, 8.2
2024/02/19 06:20:00,17.5, 8.3
2024/02/19 06:30:00,17.5, 8.6
2024/02/19 06:40:00,17.4, 8.6
2024/02/19 06:50:00,17.4, 8.7
2024/02/19 07:00:00,17.4, 8.7
2024/02/19 07:10:00,17.2, 8.6
2024/02/19 07:20:00,17.1, 8.5
2024/02/19 07:30:00,16.9, 8.6
2024/02/19 07:40:00,16.9, 9.0
2024/02/19 07:50:00,16.7, 9.0
2024/02/19 08:00:00,16.3, 9.0
2024/02/19 08:10:00,16.0, 9.1
2024/02/19 08:20:00,15.9, 9.3
2024/02/19 08:30:00,15.6, 9.4
2024/02/19 08:40:00,15.3, 9.1
2024/02/19 08:50:00,15.1, 9.0
2024/02/19 09:00:00,14.7, 9.4
2024/02/19 09:10:00,14.5, 9.2
2024/02/19 09:20:00,14.4, 9.0
2024/02/19 09:30:00,14.2, 9.0
2024/02/19 09:40:00,14.3, 9.1
2024/02/19 09:50:00,14.2, 9.7
2024/02/19 10:00:00,14.2, 9.7
2024/02/19 10:10:00,13.9, 9.7
2024/02/19 10:20:00,13.6,10.0
2024/02/19 10:30:00,13.2, 9.5
2024/02/19 10:40:00,13.1, 9.7
2024/02/19 10:50:00,14.8, 9.9
2024/02/19 11:00:00,14.0,10.2
2024/02/19 11:10:00,12.4,10.3
2024/02/19 11:20:00,12.2, 9.8
2024/02/19 11:30:00,12.0,10.3
2024/02/19 11:40:00,12.2,10.2
2024/02/19 11:50:00,12.2,10.2
2024/02/19 12:00:00,11.5,10.3
2024/02/19 12:10:00,11.2,10.4
2024/02/19 12:20:00,11.4,10.6
2024/02/19 12:30:00,10.9,10.7
2024/02/19 12:40:00,10.4,10.5
2024/02/19 12:50:00,10.3,10.7
2024/02/19 13:00:00,10.0,11.1
2024/02/19 13:10:00, 9.6,11.0
2024/02/19 13:20:00, 9.4,10.9
2024/02/19 13:30:00, 9.3,10.7
2024/02/19 13:40:00, 8.8,11.4
2024/02/19 13:50:00, 8.6,11.1
2024/02/19 14:00:00, 8.7,10.9
2024/02/19 14:10:00, 8.6,10.8
2024/02/19 14:20:00, 8.2,10.4
2024/02/19 14:30:00, 8.3,10.3
2024/02/19 14:40:00, 7.9,10.4
2024/02/19 14:50:00, 7.6,10.2
2024/02/19 15:00:00, 7.4, 9.9
2024/02/19 15:10:00, 7.4,10.0
2024/02/19 15:20:00, 7.2,10.1
2024/02/19 15:30:00, 6.7,10.4
2024/02/19 15:40:00, 6.3,10.7
2024/02/19 15:50:00, 6.0,10.6
2024/02/19 16:00:00, 5.8,10.7
2024/02/19 16:10:00, 5.8,10.8
2024/02/19 16:20:00, 5.5,10.8
2024/02/19 16:30:00, 5.3,10.7
2024/02/19 16:40:00, 4.8,12.1
2024/02/19 16:50:00, 4.7,11.7
2024/02/19 17:00:00, 4.5,11.3
2024/02/19 17:10:00, 4.9,11.1
2024/02/19 17:20:00, 5.8,11.0
2024/02/19 17:30:00, 3.9,10.4
2024/02/19 17:40:00, 3.7,10.8
2024/02/19 17:50:00, 3.6,10.7
2024/02/19 18:00:00, 3.6,10.5
2024/02/19 18:10:00, 3.4,10.2
2024/02/19 18:20:00, 3.1,10.6
2024/02/19 18:30:00, 2.9,10.8
2024/02/19 18:40:00, 2.8,11.0
2024/02/19 18:50:00, 2.7,10.9
2024/02/19 19:00:00, 2.8,10.7
2024/02/19 19:10:00, 2.8,11.4
2024/02/19 19:20:00, 2.5,11.2
2024/02/19 19:30:00, 1.8,10.9
2024/02/19 19:40:00, 1.7,11.1
2024/02/19 19:50:00, 1.8,11.7
2024/02/19 20:00:00, 2.1,10.8
2024/02/19 20:10:00, 1.6,10.5
2024/02/19 20:20:00, 1.6,10.5
2024/02/19 20:30:00, 1.4,10.7
2024/02/19 20:40:00, 1.3,10.5
2024/02/19 20:50:00, 1.2,10.9
2024/02/19 21:00:00, 1.1,11.0
2024/02/19 21:10:00, 1.0,10.9
2024/02/19 21:20:00, 1.2,11.1
2024/02/19 21:30:00, 1.2,11.0
2024/02/19 21:40:00, 0.7,11.1
2024/02/19 21:50:00, 0.5,10.9
2024/02/19 22:00:00, 0.3,11.0
2024/02/19 22:10:00, 0.3,11.2
2024/02/19 22:20:00, 0.3,10.3
2024/02/19 22:30:00, 0.3,10.1
2024/02/19 22:40:00, 0.3,10.4
2024/02/19 22:50:00, 0.2,10.5
2024/02/19 23:00:00, 0.1,10.4
2024/02/19 23:10:00, 0.0,10.5
2024/02/19 23:20:00, 0.0,10.1
2024/02/19 23:30:00, 0.0,10.6
2024/02/19 23:40:00, 0.0,10.5
2024/02/19 23:50:00, 0.0,10.5
